Weather History for Truth Or Consequences, NM

Change the Weather History Date:

Sunday, November 25, 2012

  Actual Average Record
Temperature  
Mean Temperature 52 °F -  
Max Temperature 70 °F 58 °F 70 °F (2012)
Min Temperature 35 °F 33 °F 21 °F (2007)
Degree Days  
Heating Degree Days 12    
Month to date heating degree days  
Since 1 July heating degree days  
Growing Degree Days 2 (Base 50)    
Moisture  
Dew Point 21 °F    
Average Humidity 35    
Maximum Humidity 52    
Minimum Humidity 18    
Precipitation  
Precipitation 0.00 in - 0.37 in (2011)
Month to date precipitation 0.01  
Year to date precipitation 2.60  
Sea Level Pressure  
Sea Level Pressure 29.93 in    
Wind  
Wind Speed 6 mph (West)    
Max Wind Speed 14 mph    
Max Gust Speed 16 mph    
Visibility 10 miles    
Events      
T = Trace of Precipitation, MM = Missing Value Source: NWS Daily Summary

Daily Weather History Graph

Daily Weather History Graph

Search for Another Location

Airport:

Trip Planner

Search our weather history database for the weather conditions in past years. The results will help you decide how hot, cold, wet, or windy it might be!

Date:

Astronomy

Nov. 25, 2012 Rise Set
Actual Time 6:49 AM MST 5:02 PM MST
Civil Twilight 6:22 AM MST 5:29 PM MST
Nautical Twilight 5:52 AM MST 5:59 PM MST
Astronomical Twilight 5:22 AM MST 6:29 PM MST
Moon 3:16 PM MST (11/25) 4:12 AM MST (11/25)
Length of Visible Light 11h 06m
Length of Day
10h 12m
Waxing Gibbous, 93% of the Moon is Illuminated
Nov 25
Waxing Gibbous
Nov 28
Full
Dec 6
Last Quarter
Dec 13
New
Dec 19
First Quarter

Hourly Weather History & Observations

Time (MST) Temp. Windchill Dew Point Humidity Pressure Visibility Wind Dir Wind Speed Gust Speed Precip Events Conditions
12:53 AM 39.9 °F 35.8 °F 19.0 °F 43% 30.01 in 10.0 mi West 5.8 mph - N/A   Clear
1:53 AM 37.9 °F 32.7 °F 19.0 °F 47% 30.00 in 10.0 mi NW 6.9 mph - N/A   Clear
2:53 AM 37.9 °F 33.5 °F 18.0 °F 45% 29.99 in 10.0 mi West 5.8 mph - N/A   Clear
3:53 AM 39.0 °F 34.8 °F 19.9 °F 46% 29.97 in 10.0 mi West 5.8 mph - N/A   Clear
4:53 AM 43.0 °F 38.2 °F 19.9 °F 40% 29.97 in 10.0 mi WNW 8.1 mph - N/A   Clear
5:53 AM 39.0 °F 36.8 °F 19.0 °F 45% 30.00 in 10.0 mi NW 3.5 mph - N/A   Clear
6:53 AM 36.0 °F 32.1 °F 19.9 °F 52% 30.04 in 10.0 mi North 4.6 mph - N/A   Clear
7:53 AM 42.1 °F 40.2 °F 21.9 °F 45% 30.04 in 10.0 mi North 3.5 mph - N/A   Clear
8:53 AM 48.0 °F - 23.0 °F 37% 30.04 in 10.0 mi ENE 3.5 mph - N/A   Clear
9:53 AM 51.1 °F - 21.9 °F 32% 30.03 in 10.0 mi NE 4.6 mph - N/A   Clear
10:53 AM 55.9 °F - 24.1 °F 29% 30.00 in 10.0 mi Calm Calm - N/A   Clear
11:53 AM 59.0 °F - 25.0 °F 27% 29.95 in 10.0 mi SSE 5.8 mph - N/A   Clear
12:53 PM 64.0 °F - 26.1 °F 24% 29.89 in 10.0 mi South 5.8 mph - N/A   Clear
1:53 PM 68.0 °F - 26.1 °F 21% 29.85 in 10.0 mi SSE 8.1 mph - N/A   Clear
2:53 PM 69.1 °F - 27.0 °F 21% 29.82 in 10.0 mi South 10.4 mph - N/A   Clear
3:53 PM 70.0 °F - 24.1 °F 18% 29.80 in 10.0 mi South 6.9 mph - N/A   Clear
4:53 PM 68.0 °F - 21.9 °F 17% 29.79 in 10.0 mi SW 10.4 mph - N/A   Clear
5:53 PM 63.0 °F - 19.0 °F 18% 29.82 in 10.0 mi WSW 11.5 mph - N/A   Clear
6:53 PM 59.0 °F - 19.9 °F 22% 29.86 in 10.0 mi WSW 9.2 mph - N/A   Clear
7:53 PM 54.0 °F - 19.0 °F 25% 29.88 in 10.0 mi West 10.4 mph - N/A   Clear
8:53 PM 55.9 °F - 18.0 °F 23% 29.88 in 10.0 mi Calm Calm - N/A   Clear
9:53 PM 57.0 °F - 17.1 °F 21% 29.88 in 10.0 mi NW 5.8 mph - N/A   Clear
10:53 PM 50.0 °F - 17.1 °F 27% 29.89 in 10.0 mi WNW 6.9 mph - N/A   Clear
11:53 PM 50.0 °F - 18.0 °F 28% 29.89 in 10.0 mi NW 10.4 mph - N/A   Clear